Flag Weather past 2 weeks in Lübbecke, North Rhine-Westphalia, Germany

Now
39 °F

Passing clouds.


Feels Like: 35 °F
Forecast: 36 / 40 °F
Wind: 6 mph from Southeast

Location: Bueckeburg

Current Time: Nov 26, 2014 at 2:49:52 AM

Latest Report: Nov 26, 2014 at 1:20 AM


Visibility: N/A

Pressure: 30.21 "Hg

Humidity: 87%

Dew point: 36 °F

Location of LübbeckeLocation

Historic Weather in Lübbecke — Graph

°F

Lübbecke temperature yesterday

Maximum temperature yesterday: 48 °F (at 12:20 PM)
Minimum temperature yesterday: 37 °F (at 12:20 AM)
Average temperature yesterday: 41 °F

Past Weeks' High & Low Weather Summary

 TemperatureHumidityPressure
High57 °F (Nov 11, 1:20 PM)100% (Nov 12, 5:20 PM)30.36 "Hg (Nov 12, 5:20 PM)
Low36 °F (Nov 21, 7:20 AM)59% (Nov 23, 2:20 PM)29.50 "Hg (Nov 16, 11:20 AM)
Average47 °F86%29.96 "Hg
* Reported Nov 11 1:20 AM — Nov 26 1:20 AM, Lübbecke, Weather by CustomWeather, © 2014

Note: Actual official high and low records may vary slightly from our data, if they occured in-between our weather recording intervals... More about our weather records

Advertising

Lübbecke weather history for previous 24 hours

 ConditionsComfort  
Time TempWeatherWind HumidityBarometerVisibility
1:20 AM
Nov 26
39 °FPassing clouds.6 mph87%30.21 "HgN/A
12:20 AM39 °FPassing clouds.3 mph87%30.24 "HgN/A
11:20 PM
Nov 25
39 °FPassing clouds.6 mph87%30.24 "HgN/A
10:20 PM39 °FPassing clouds.10 mph93%30.24 "HgN/A
9:20 PM41 °FPassing clouds.6 mph87%30.24 "HgN/A
8:20 PM41 °FPassing clouds.5 mph87%30.27 "HgN/A
7:20 PM43 °FPassing clouds.5 mph87%30.27 "HgN/A
6:20 PM45 °FPassing clouds.6 mph81%30.27 "HgN/A
5:20 PM43 °FPassing clouds.6 mph87%30.27 "Hg5 mi
4:20 PM43 °FPassing clouds.7 mph93%30.27 "Hg5 mi
3:20 PM45 °FPartly sunny.5 mph87%30.30 "HgN/A
2:20 PM46 °FPartly sunny.3 mph87%30.30 "HgN/A
1:20 PM48 °FPartly sunny.1 mph76%30.30 "HgN/A
1:01 PM46 °FPartly sunny.2 mph82%30.30 "HgN/A
12:20 PM48 °FScattered clouds.1 mph76%30.33 "HgN/A
11:20 AM43 °FScattered clouds.No wind93%30.33 "HgN/A
10:20 AM41 °FScattered clouds.1 mph93%30.33 "HgN/A
9:20 AM41 °FPartly sunny.3 mph93%30.33 "HgN/A
8:45 AM41 °FBroken clouds.3 mph93%30.33 "HgN/A
8:20 AM41 °FPartly sunny.3 mph93%30.33 "HgN/A
7:20 AM41 °FPassing clouds.6 mph93%30.33 "HgN/A
6:20 AM39 °FPartly cloudy.5 mph93%30.33 "HgN/A
5:20 AM37 °FPassing clouds.6 mph93%30.33 "HgN/A
4:20 AM37 °FPassing clouds.7 mph93%30.33 "HgN/A
3:20 AM37 °FChilly.3 mph93%30.33 "HgN/A
2:20 AM37 °FChilly.5 mph93%30.33 "HgN/A
Weather by CustomWeather, © 2014

See weather overviewHow to use our weather pages